sat.trackr.live / text

‹ back to catalog

STARLINK-36118

NORAD 67009 · 2025-293G

PAYLOAD ACTIVE UNKNOWN

§ Identity

Operator
Country
US
Launch date
2025-12-10
Launch site
AFWTR
Launch vehicle
Mass (kg)
RCS (m²)

Purposes: comms

External: N2YO · Heavens-Above · Gunter

§ Orbital elements

Epoch: 2026-05-25T00:38:20.571072Z

Period
96.11 min
Inclination
70.0005°
Eccentricity
0.0003331
Mean motion
14.98337567 rev/d
Perigee alt
569.7 km
Apogee alt
574.3 km
Semi-major
6,950.2 km
B*
2.2356e-4
RAAN
261.9293°
Arg perigee
267.6313°
Mean anomaly
92.4465°
Rev number
2,632

§ Raw data

STARLINK-361181 67009U 25293G   26145.02662698  .00002576  00000+0  22356-3 0  99902 67009  70.0005 261.9293 0003331 267.6313  92.4465 14.98337567 26322

JSON: /api/v1/satellites/67009 · /tle

For live sub-satellite position, see the globe view (requires WebGL).

§ Visibility from observer

Set your observer location to see the next 7 days of passes ≥ 10°. The values pass through the URL so the page stays shareable.

No JS? Fill the form by hand. The geolocation button needs JavaScript.